| time (UTC) | temp C | wind direction | speed KPH | gust KPH | rain 1hr cm | rain 24hr cm | rain mn cm | humidity % | barometer mb |
| 20260507183425 | 18 | 83 | 0.0 | 1.6 | 0.00 | 0.00 | 0.00 | 99 | 1006.2 |
| 20260507182924 | 20 | 81 | 0.0 | 1.6 | 0.00 | 0.00 | 0.00 | 99 | 1006.2 |
| 20260507182425 | 20 | 72 | 0.0 | 0.0 | 0.00 | 0.00 | 0.00 | 99 | 1006.2 |
| 20260507181924 | 18 | 103 | 0.0 | 0.0 | 0.00 | 0.00 | 0.00 | 99 | 1006.2 |
| 20260507181424 | 17 | 95 | 0.0 | 0.0 | 0.00 | 0.00 | 0.00 | 99 | 1006.2 |
| 20260507180924 | 17 | 40 | 0.0 | 9.7 | 0.00 | 0.00 | 0.00 | 99 | 1007.0 |
| 20260507180424 | 17 | 82 | 0.0 | 9.7 | 0.00 | 0.00 | 0.00 | 99 | 1006.2 |
| 20260507175924 | 18 | 6 | 0.0 | 0.0 | 0.00 | 0.00 | 0.00 | 99 | 1007.0 |
| 20260507175424 | 18 | 8 | 0.0 | 1.6 | 0.00 | 0.00 | 0.00 | 99 | 1006.2 |
| 20260507174924 | 20 | 86 | 0.0 | 1.6 | 0.00 | 0.00 | 0.00 | 99 | 1007.0 |
| 20260507174424 | 21 | 37 | 0.0 | 0.0 | 0.00 | 0.00 | 0.00 | 99 | 1007.0 |
| 20260507173924 | 21 | 93 | 0.0 | 1.6 | 0.00 | 0.00 | 0.00 | 99 | 1006.2 |
| 20260507173425 | 21 | 78 | 0.0 | 3.2 | 0.00 | 0.00 | 0.00 | 99 | 1007.0 |
| 20260507172924 | 21 | 41 | 0.0 | 3.2 | 0.00 | 0.00 | 0.00 | 99 | 1007.0 |
| 20260507172424 | 21 | 84 | 0.0 | 0.0 | 0.00 | 0.00 | 0.00 | 99 | 1007.0 |
| 20260507171924 | 19 | 133 | 0.0 | 0.0 | 0.00 | 0.00 | 0.00 | 99 | 1006.2 |
| 20260507171424 | 19 | 142 | 0.0 | 4.8 | 0.00 | 0.00 | 0.00 | 99 | 1007.0 |
| 20260507170924 | 18 | 92 | 0.0 | 4.8 | 0.00 | 0.00 | 0.00 | 99 | 1007.0 |
| 20260507170424 | 19 | 39 | 0.0 | 4.8 | 0.00 | 0.00 | 0.00 | 99 | 1007.0 |
| 20260507165924 | 21 | 6 | 1.6 | 6.4 | 0.00 | 0.00 | 0.00 | 99 | 1007.0 |
| 20260507165424 | 21 | 77 | 0.0 | 6.4 | 0.00 | 0.00 | 0.00 | 99 | 1007.0 |
| 20260507164924 | 21 | 51 | 0.0 | 1.6 | 0.00 | 0.00 | 0.00 | 99 | 1006.2 |
| 20260507164424 | 21 | 49 | 0.0 | 3.2 | 0.00 | 0.00 | 0.00 | 99 | 1007.0 |
| 20260507163924 | 21 | 309 | 0.0 | 4.8 | 0.00 | 0.00 | 0.00 | 99 | 1007.0 |
| 20260507163425 | 20 | 49 | 0.0 | 4.8 | 0.00 | 0.00 | 0.00 | 99 | 1007.0 |
| 20260507162924 | 19 | 77 | 0.0 | 4.8 | 0.00 | 0.00 | 0.00 | 99 | 1007.0 |
| 20260507162424 | 19 | 10 | 0.0 | 3.2 | 0.00 | 0.00 | 0.00 | 99 | 1006.2 |
| 20260507161924 | 20 | 137 | 0.0 | 3.2 | 0.00 | 0.00 | 0.00 | 99 | 1007.0 |
| 20260507161424 | 19 | 83 | 0.0 | 3.2 | 0.00 | 0.00 | 0.00 | 99 | 1006.2 |
| 20260507160924 | 18 | 13 | 0.0 | 3.2 | 0.00 | 0.00 | 0.00 | 99 | 1007.0 |
| 20260507160424 | 18 | 86 | 0.0 | 0.0 | 0.00 | 0.00 | 0.00 | 99 | 1007.0 |
| 20260507155924 | 19 | 97 | 0.0 | 0.0 | 0.00 | 0.00 | 0.00 | 99 | 1007.0 |
| 20260507155424 | 20 | 358 | 0.0 | 0.0 | 0.00 | 0.00 | 0.00 | 99 | 1007.0 |
| 20260507154924 | 20 | 83 | 0.0 | 0.0 | 0.00 | 0.00 | 0.00 | 99 | 1007.0 |
| 20260507154424 | 20 | 44 | 0.0 | 0.0 | 0.00 | 0.00 | 0.00 | 99 | 1007.0 |
| 20260507153924 | 20 | 86 | 0.0 | 0.0 | 0.00 | 0.00 | 0.00 | 99 | 1007.0 |
| 20260507153424 | 19 | 1 | 0.0 | 0.0 | 0.00 | 0.00 | 0.00 | 99 | 1007.0 |
| 20260507152924 | 19 | 143 | 0.0 | 6.4 | 0.00 | 0.00 | 0.00 | 99 | 1007.0 |
| 20260507152424 | 19 | 42 | 0.0 | 6.4 | 0.00 | 0.00 | 0.00 | 99 | 1007.0 |
| 20260507151924 | 20 | 50 | 0.0 | 0.0 | 0.00 | 0.00 | 0.00 | 99 | 1007.1 |
| 20260507151424 | 19 | 83 | 0.0 | 0.0 | 0.00 | 0.00 | 0.00 | 99 | 1007.1 |
| 20260507150924 | 19 | 269 | 0.0 | 0.0 | 0.00 | 0.00 | 0.00 | 99 | 1007.0 |
| 20260507150424 | 20 | 90 | 0.0 | 0.0 | 0.00 | 0.00 | 0.00 | 99 | 1007.2 |
| 20260507145924 | 19 | 93 | 0.0 | 0.0 | 0.00 | 0.00 | 0.00 | 99 | 1007.2 |
| 20260507145424 | 18 | 2 | 0.0 | 0.0 | 0.00 | 0.00 | 0.00 | 99 | 1008.0 |
| 20260507144924 | 18 | 130 | 0.0 | 0.0 | 0.00 | 0.00 | 0.00 | 99 | 1007.2 |
| 20260507144424 | 18 | 127 | 0.0 | 0.0 | 0.00 | 0.00 | 0.00 | 99 | 1008.0 |
| 20260507143924 | 17 | 91 | 0.0 | 0.0 | 0.00 | 0.00 | 0.00 | 99 | 1007.2 |
| 20260507143424 | 17 | 136 | 0.0 | 0.0 | 0.00 | 0.00 | 0.00 | 99 | 1007.2 |
| 20260507142924 | 17 | 15 | 0.0 | 8.0 | 0.00 | 0.00 | 0.00 | 99 | 1007.2 |
| 20260507142424 | 17 | 37 | 0.0 | 8.0 | 0.00 | 0.00 | 0.00 | 99 | 1008.0 |
| 20260507141924 | 17 | 49 | 0.0 | 4.8 | 0.00 | 0.00 | 0.00 | 99 | 1007.2 |
| 20260507141424 | 17 | 132 | 0.0 | 4.8 | 0.00 | 0.00 | 0.00 | 99 | 1008.0 |
| 20260507140924 | 17 | 93 | 0.0 | 0.0 | 0.00 | 0.00 | 0.00 | 99 | 1007.2 |
| 20260507140424 | 17 | 130 | 0.0 | 0.0 | 0.00 | 0.00 | 0.00 | 99 | 1008.0 |
| 20260507135924 | 17 | 103 | 0.0 | 0.0 | 0.00 | 0.00 | 0.00 | 99 | 1007.2 |
| 20260507135424 | 16 | 82 | 0.0 | 3.2 | 0.00 | 0.00 | 0.00 | 99 | 1008.0 |
| 20260507134924 | 17 | 38 | 0.0 | 3.2 | 0.00 | 0.00 | 0.00 | 99 | 1007.2 |
| 20260507134424 | 16 | 54 | 0.0 | 0.0 | 0.00 | 0.00 | 0.00 | 99 | 1008.0 |
| 20260507133924 | 16 | 18 | 0.0 | 0.0 | 0.00 | 0.00 | 0.00 | 99 | 1007.2 |
| 20260507133424 | 16 | 19 | 0.0 | 1.6 | 0.00 | 0.00 | 0.00 | 99 | 1007.2 |
| 20260507132924 | 16 | 13 | 0.0 | 1.6 | 0.00 | 0.00 | 0.00 | 99 | 1007.2 |
| 20260507132424 | 15 | 53 | 0.0 | 3.2 | 0.00 | 0.00 | 0.00 | 99 | 1007.2 |
| 20260507131924 | 15 | 48 | 0.0 | 6.4 | 0.00 | 0.00 | 0.00 | 99 | 1007.2 |
| 20260507131424 | 15 | 10 | 0.0 | 9.7 | 0.00 | 0.00 | 0.00 | 99 | 1007.2 |
| 20260507130924 | 15 | 52 | 0.0 | 12.9 | 0.00 | 0.00 | 0.00 | 99 | 1007.2 |
| 20260507130424 | 15 | 46 | 0.0 | 12.9 | 0.00 | 0.00 | 0.00 | 99 | 1008.0 |
| 20260507125924 | 14 | 40 | 0.0 | 3.2 | 0.00 | 0.00 | 0.00 | 99 | 1007.2 |
| 20260507125425 | 14 | 45 | 0.0 | 4.8 | 0.00 | 0.00 | 0.00 | 99 | 1007.2 |
| 20260507124924 | 14 | 43 | 0.0 | 4.8 | 0.00 | 0.00 | 0.00 | 99 | 1007.2 |
| 20260507124424 | 14 | 38 | 0.0 | 1.6 | 0.00 | 0.00 | 0.00 | 99 | 1008.0 |
| 20260507123924 | 14 | 60 | 0.0 | 8.0 | 0.00 | 0.00 | 0.00 | 99 | 1007.2 |
| 20260507123424 | 14 | 43 | 1.6 | 8.0 | 0.00 | 0.00 | 0.00 | 99 | 1007.2 |
| 20260507122924 | 13 | 45 | 0.0 | 4.8 | 0.00 | 0.00 | 0.00 | 99 | 1007.2 |
| 20260507122424 | 13 | 66 | 0.0 | 6.4 | 0.00 | 0.00 | 0.00 | 99 | 1007.2 |
| 20260507121924 | 12 | 78 | 0.0 | 8.0 | 0.00 | 0.00 | 0.00 | 99 | 1007.2 |
| 20260507121424 | 12 | 87 | 0.0 | 9.7 | 0.00 | 0.00 | 0.00 | 99 | 1008.0 |
| 20260507120924 | 12 | 67 | 0.0 | 9.7 | 0.00 | 0.00 | 0.00 | 99 | 1007.2 |
| 20260507120424 | 12 | 39 | 0.0 | 8.0 | 0.00 | 0.00 | 0.00 | 99 | 1007.2 |
| 20260507115924 | -17 | 93 | 0.0 | 0.0 | 0.00 | 0.00 | 0.00 | 99 | 1007.2 |
| 20260507115424 | -17 | 44 | 0.0 | 0.0 | 0.00 | 0.00 | 0.00 | 99 | 1007.2 |
| 20260507114924 | -17 | 44 | 0.0 | 3.2 | 0.00 | 0.00 | 0.00 | 99 | 1007.2 |
| 20260507114424 | -17 | 82 | 0.0 | 3.2 | 0.00 | 0.00 | 0.00 | 99 | 1008.0 |
| 20260507113924 | -17 | 39 | 0.0 | 8.0 | 0.00 | 0.00 | 0.00 | 99 | 1007.2 |
| 20260507113424 | -17 | 47 | 1.6 | 8.0 | 0.00 | 0.00 | 0.00 | 99 | 1008.0 |
| 20260507112924 | -17 | 82 | 3.2 | 6.4 | 0.00 | 0.00 | 0.00 | 99 | 1007.2 |
| 20260507112424 | -17 | 73 | 1.6 | 4.8 | 0.00 | 0.00 | 0.00 | 99 | 1008.0 |
| 20260507111924 | -17 | 46 | 1.6 | 6.4 | 0.00 | 0.00 | 0.00 | 99 | 1008.0 |
| 20260507111424 | -17 | 78 | 1.6 | 6.4 | 0.00 | 0.00 | 0.00 | 99 | 1007.2 |
| 20260507110924 | -17 | 39 | 1.6 | 6.4 | 0.00 | 0.00 | 0.00 | 99 | 1007.2 |
| 20260507110424 | -17 | 50 | 1.6 | 6.4 | 0.00 | 0.00 | 0.00 | 99 | 1008.0 |
| 20260507105924 | -17 | 82 | 1.6 | 4.8 | 0.00 | 0.00 | 0.00 | 99 | 1007.2 |
| 20260507105424 | -17 | 47 | 0.0 | 6.4 | 0.00 | 0.00 | 0.00 | 99 | 1008.0 |
| 20260507104924 | -17 | 51 | 1.6 | 6.4 | 0.00 | 0.00 | 0.00 | 99 | 1007.2 |
| 20260507104424 | -17 | 82 | 1.6 | 4.8 | 0.00 | 0.00 | 0.00 | 99 | 1007.1 |
| 20260507103924 | -17 | 41 | 3.2 | 8.0 | 0.00 | 0.00 | 0.00 | 99 | 1007.0 |
| 20260507103424 | -17 | 43 | 3.2 | 8.0 | 0.00 | 0.00 | 0.00 | 99 | 1007.0 |
| 20260507102924 | -17 | 55 | 1.6 | 4.8 | 0.00 | 0.00 | 0.00 | 99 | 1007.0 |
| 20260507102424 | -17 | 48 | 1.6 | 4.8 | 0.00 | 0.00 | 0.00 | 99 | 1007.0 |
| 20260507101924 | -17 | 78 | 1.6 | 8.0 | 0.00 | 0.00 | 0.00 | 99 | 1007.0 |
| 20260507101424 | -17 | 46 | 1.6 | 8.0 | 0.00 | 0.00 | 0.00 | 99 | 1007.0 |
| 20260507100924 | -17 | 50 | 0.0 | 0.0 | 0.00 | 0.00 | 0.00 | 99 | 1007.0 |
| 20260507100424 | -17 | 73 | 0.0 | 0.0 | 0.00 | 0.00 | 0.00 | 99 | 1007.0 |
| 20260507095924 | -17 | 47 | 0.0 | 0.0 | 0.00 | 0.00 | 0.00 | 99 | 1007.0 |
| 20260507095424 | -17 | 70 | 0.0 | 0.0 | 0.00 | 0.00 | 0.00 | 99 | 1007.0 |
| 20260507094924 | -17 | 67 | 0.0 | 0.0 | 0.00 | 0.00 | 0.00 | 99 | 1007.0 |
| 20260507094424 | -17 | 49 | 0.0 | 3.2 | 0.00 | 0.00 | 0.00 | 99 | 1007.0 |
| 20260507093924 | -17 | 41 | 0.0 | 3.2 | 0.00 | 0.00 | 0.00 | 99 | 1007.0 |
| 20260507093424 | -17 | 87 | 0.0 | 0.0 | 0.00 | 0.00 | 0.00 | 99 | 1006.2 |
| 20260507092924 | -17 | 48 | 0.0 | 0.0 | 0.00 | 0.00 | 0.00 | 99 | 1007.0 |
| 20260507092424 | -17 | 135 | 0.0 | 0.0 | 0.00 | 0.00 | 0.00 | 99 | 1007.0 |
| 20260507091924 | -17 | 128 | 0.0 | 0.0 | 0.00 | 0.00 | 0.00 | 99 | 1007.0 |
| 20260507091424 | -17 | 179 | 0.0 | 0.0 | 0.00 | 0.00 | 0.00 | 99 | 1007.0 |
| 20260507090924 | -17 | 183 | 0.0 | 0.0 | 0.00 | 0.00 | 0.00 | 99 | 1007.0 |
| 20260507090424 | -17 | 56 | 0.0 | 0.0 | 0.00 | 0.00 | 0.00 | 99 | 1007.0 |
| 20260507085924 | -17 | 309 | 0.0 | 0.0 | 0.00 | 0.00 | 0.00 | 99 | 1007.0 |
| 20260507085424 | -17 | 113 | 0.0 | 0.0 | 0.00 | 0.00 | 0.00 | 99 | 1007.0 |
| 20260507084924 | -17 | 132 | 0.0 | 0.0 | 0.00 | 0.00 | 0.00 | 99 | 1007.0 |
| 20260507084424 | -17 | 104 | 0.0 | 0.0 | 0.00 | 0.00 | 0.00 | 99 | 1007.0 |
| 20260507083924 | -17 | 85 | 0.0 | 0.0 | 0.00 | 0.00 | 0.00 | 99 | 1007.0 |
| 20260507083424 | -17 | 43 | 0.0 | 0.0 | 0.00 | 0.00 | 0.00 | 99 | 1007.0 |
| 20260507082924 | -17 | 45 | 0.0 | 0.0 | 0.00 | 0.00 | 0.00 | 99 | 1007.0 |
| 20260507082424 | -17 | 67 | 0.0 | 0.0 | 0.00 | 0.00 | 0.00 | 99 | 1007.0 |
| 20260507081924 | -17 | 63 | 0.0 | 0.0 | 0.00 | 0.00 | 0.00 | 99 | 1007.0 |
| 20260507081424 | -17 | 93 | 0.0 | 0.0 | 0.00 | 0.00 | 0.00 | 99 | 1006.2 |
| 20260507080924 | -17 | 129 | 0.0 | 0.0 | 0.00 | 0.00 | 0.00 | 99 | 1007.0 |
| 20260507080424 | -17 | 46 | 0.0 | 0.0 | 0.00 | 0.00 | 0.00 | 99 | 1007.0 |
| 20260507075924 | -17 | 76 | 0.0 | 0.0 | 0.00 | 0.00 | 0.00 | 99 | 1007.0 |
| 20260507075424 | -17 | 45 | 0.0 | 0.0 | 0.00 | 0.00 | 0.00 | 99 | 1007.0 |
| 20260507074924 | -17 | 55 | 0.0 | 0.0 | 0.00 | 0.00 | 0.00 | 99 | 1007.0 |
| 20260507074424 | -17 | 55 | 0.0 | 0.0 | 0.00 | 0.00 | 0.00 | 99 | 1007.0 |
| 20260507073924 | -17 | 52 | 0.0 | 0.0 | 0.00 | 0.00 | 0.00 | 99 | 1007.0 |
| 20260507073424 | -17 | 72 | 0.0 | 0.0 | 0.00 | 0.00 | 0.00 | 99 | 1006.2 |
| 20260507072924 | -17 | 45 | 0.0 | 0.0 | 0.00 | 0.00 | 0.00 | 99 | 1007.0 |
| 20260507072424 | -17 | 76 | 0.0 | 1.6 | 0.00 | 0.00 | 0.00 | 99 | 1006.2 |
| 20260507071924 | -17 | 41 | 0.0 | 1.6 | 0.00 | 0.00 | 0.00 | 99 | 1007.0 |
| 20260507071424 | -17 | 50 | 0.0 | 1.6 | 0.00 | 0.00 | 0.00 | 99 | 1007.0 |
| 20260507070924 | -17 | 44 | 0.0 | 1.6 | 0.00 | 0.00 | 0.00 | 99 | 1007.0 |
| 20260507070424 | -17 | 61 | 0.0 | 1.6 | 0.00 | 0.00 | 0.00 | 99 | 1006.2 |
| 20260507065924 | -17 | 79 | 0.0 | 1.6 | 0.00 | 0.00 | 0.00 | 99 | 1006.0 |
| 20260507065424 | -17 | 55 | 0.0 | 0.0 | 0.00 | 0.00 | 0.00 | 99 | 1006.1 |
| 20260507064924 | -17 | 53 | 0.0 | 0.0 | 0.00 | 0.00 | 0.00 | 99 | 1007.0 |
| 20260507064424 | -17 | 69 | 0.0 | 6.4 | 0.00 | 0.00 | 0.00 | 99 | 1006.2 |
| 20260507063924 | -17 | 67 | 0.0 | 6.4 | 0.00 | 0.00 | 0.00 | 99 | 1006.2 |
| 20260507063424 | -17 | 76 | 0.0 | 1.6 | 0.00 | 0.00 | 0.00 | 99 | 1006.1 |
| 20260507062924 | -17 | 54 | 0.0 | 0.0 | 0.00 | 0.00 | 0.00 | 99 | 1006.1 |
| 20260507062424 | -17 | 51 | 0.0 | 0.0 | 0.00 | 0.00 | 0.00 | 99 | 1006.2 |
| 20260507061924 | -17 | 46 | 0.0 | 0.0 | 0.00 | 0.00 | 0.00 | 99 | 1007.0 |
| 20260507061424 | -17 | 54 | 0.0 | 0.0 | 0.00 | 0.00 | 0.00 | 99 | 1006.1 |
| 20260507060924 | -17 | 76 | 0.0 | 0.0 | 0.00 | 0.00 | 0.00 | 99 | 1007.0 |
| 20260507060424 | -17 | 67 | 0.0 | 0.0 | 0.00 | 0.00 | 0.00 | 99 | 1006.2 |
| 20260507055924 | -17 | 76 | 0.0 | 0.0 | 0.00 | 0.00 | 0.00 | 99 | 1006.2 |
| 20260507055424 | -17 | 72 | 0.0 | 0.0 | 0.00 | 0.00 | 0.00 | 99 | 1006.1 |
| 20260507054924 | -17 | 36 | 0.0 | 0.0 | 0.00 | 0.00 | 0.00 | 99 | 1006.1 |
| 20260507054424 | -17 | 91 | 0.0 | 0.0 | 0.00 | 0.00 | 0.00 | 99 | 1006.2 |
| 20260507053924 | -17 | 136 | 0.0 | 0.0 | 0.00 | 0.00 | 0.00 | 99 | 1007.0 |
| 20260507053424 | -17 | 90 | 0.0 | 0.0 | 0.00 | 0.00 | 0.00 | 99 | 1006.2 |
| 20260507052924 | -17 | 140 | 0.0 | 0.0 | 0.00 | 0.00 | 0.00 | 99 | 1007.0 |
| 20260507052424 | -17 | 93 | 0.0 | 0.0 | 0.00 | 0.00 | 0.00 | 99 | 1006.1 |
| 20260507051924 | -17 | 106 | 0.0 | 0.0 | 0.00 | 0.00 | 0.00 | 99 | 1006.0 |
| 20260507051424 | -17 | 144 | 0.0 | 0.0 | 0.00 | 0.00 | 0.00 | 99 | 1006.2 |
| 20260507050924 | -17 | 96 | 0.0 | 0.0 | 0.00 | 0.00 | 0.00 | 99 | 1007.0 |
| 20260507050423 | -17 | 87 | 0.0 | 0.0 | 0.00 | 0.00 | 0.00 | 99 | 1006.2 |
| 20260507045923 | -17 | 151 | 0.0 | 1.6 | 0.00 | 0.00 | 0.00 | 99 | 1007.0 |
| 20260507045423 | -17 | 79 | 0.0 | 1.6 | 0.00 | 0.00 | 0.00 | 99 | 1006.2 |
| 20260507044923 | -17 | 85 | 0.0 | 0.0 | 0.00 | 0.00 | 0.00 | 99 | 1007.0 |
| 20260507044423 | -17 | 75 | 0.0 | 0.0 | 0.00 | 0.00 | 0.00 | 99 | 1006.2 |
| 20260507043923 | -17 | 137 | 0.0 | 0.0 | 0.00 | 0.00 | 0.00 | 99 | 1007.0 |
| 20260507043424 | -17 | 13 | 0.0 | 0.0 | 0.00 | 0.00 | 0.00 | 99 | 1006.2 |
| 20260507042923 | -17 | 183 | 0.0 | 0.0 | 0.00 | 0.00 | 0.00 | 99 | 1007.0 |
| 20260507042423 | -17 | 6 | 0.0 | 0.0 | 0.00 | 0.00 | 0.00 | 99 | 1006.2 |
| 20260507041923 | -17 | 101 | 0.0 | 0.0 | 0.00 | 0.00 | 0.00 | 99 | 1007.0 |
| 20260507041423 | -17 | 182 | 0.0 | 0.0 | 0.00 | 0.00 | 0.00 | 99 | 1006.2 |
| 20260507040923 | -17 | 76 | 0.0 | 0.0 | 0.00 | 0.00 | 0.00 | 99 | 1007.0 |
| 20260507040423 | -17 | 200 | 0.0 | 0.0 | 0.00 | 0.00 | 0.00 | 99 | 1006.2 |
| 20260507035923 | -17 | 70 | 0.0 | 0.0 | 0.00 | 0.00 | 0.00 | 99 | 1007.0 |
| 20260507035423 | -17 | 51 | 0.0 | 0.0 | 0.00 | 0.00 | 0.00 | 99 | 1006.2 |
| 20260507034923 | -17 | 38 | 0.0 | 0.0 | 0.00 | 0.00 | 0.00 | 99 | 1007.0 |
| 20260507034423 | -17 | 2 | 0.0 | 0.0 | 0.00 | 0.00 | 0.00 | 99 | 1006.2 |
| 20260507033923 | -17 | 47 | 0.0 | 0.0 | 0.00 | 0.00 | 0.00 | 99 | 1006.2 |
| 20260507033424 | -17 | 179 | 0.0 | 0.0 | 0.00 | 0.00 | 0.00 | 99 | 1006.2 |
| 20260507032923 | -17 | 153 | 0.0 | 0.0 | 0.00 | 0.00 | 0.00 | 99 | 1007.0 |
| 20260507032423 | -17 | 88 | 0.0 | 0.0 | 0.00 | 0.00 | 0.00 | 99 | 1006.2 |
| 20260507031923 | -17 | 81 | 0.0 | 3.2 | 0.00 | 0.00 | 0.00 | 99 | 1007.0 |
| 20260507031426 | -17 | 77 | 0.0 | 3.2 | 0.00 | 0.00 | 0.00 | 99 | 1007.0 |
| 20260507030923 | -17 | 83 | 0.0 | 0.0 | 0.00 | 0.00 | 0.00 | 99 | 1007.0 |
| 20260507030423 | -17 | 51 | 0.0 | 0.0 | 0.00 | 0.00 | 0.00 | 99 | 1006.2 |
| 20260507025923 | -17 | 49 | 0.0 | 0.0 | 0.00 | 0.00 | 0.00 | 99 | 1007.0 |
| 20260507025423 | -17 | 55 | 0.0 | 0.0 | 0.00 | 0.00 | 0.00 | 99 | 1006.2 |
| 20260507024923 | -17 | 59 | 0.0 | 0.0 | 0.00 | 0.00 | 0.00 | 99 | 1007.0 |
| 20260507024423 | -17 | 170 | 0.0 | 0.0 | 0.00 | 0.00 | 0.00 | 99 | 1006.2 |
| 20260507023923 | -17 | 73 | 0.0 | 0.0 | 0.00 | 0.00 | 0.00 | 99 | 1007.0 |
| 20260507023424 | -17 | 67 | 0.0 | 0.0 | 0.00 | 0.00 | 0.00 | 99 | 1006.2 |
| 20260507022923 | -17 | 135 | 0.0 | 0.0 | 0.00 | 0.00 | 0.00 | 99 | 1007.0 |
| 20260507022423 | -17 | 68 | 0.0 | 0.0 | 0.00 | 0.00 | 0.00 | 99 | 1006.2 |
| 20260507021923 | 9 | 47 | 0.0 | 0.0 | 0.00 | 0.00 | 0.00 | 99 | 1007.0 |
| 20260507021423 | 9 | 49 | 0.0 | 0.0 | 0.00 | 0.00 | 0.00 | 99 | 1007.0 |
| 20260507020923 | -17 | 87 | 0.0 | 0.0 | 0.00 | 0.00 | 0.00 | 99 | 1007.0 |
| 20260507020423 | -17 | 53 | 0.0 | 0.0 | 0.00 | 0.00 | 0.00 | 99 | 1007.0 |
| 20260507015923 | -17 | 98 | 0.0 | 0.0 | 0.00 | 0.00 | 0.00 | 99 | 1007.0 |
| 20260507015423 | -17 | 45 | 0.0 | 0.0 | 0.00 | 0.00 | 0.00 | 99 | 1007.0 |
| 20260507014923 | -17 | 176 | 0.0 | 0.0 | 0.00 | 0.00 | 0.00 | 99 | 1007.0 |
| 20260507014423 | -17 | 52 | 0.0 | 0.0 | 0.00 | 0.00 | 0.00 | 99 | 1006.2 |
| 20260507013923 | -17 | 46 | 0.0 | 0.0 | 0.00 | 0.00 | 0.00 | 99 | 1007.0 |
| 20260507013423 | -17 | 140 | 0.0 | 0.0 | 0.00 | 0.00 | 0.00 | 99 | 1006.2 |
| 20260507012923 | -17 | 35 | 0.0 | 0.0 | 0.00 | 0.00 | 0.00 | 99 | 1007.0 |
| 20260507012423 | -17 | 170 | 0.0 | 0.0 | 0.00 | 0.00 | 0.00 | 99 | 1006.2 |
| 20260507011923 | -17 | 82 | 0.0 | 0.0 | 0.00 | 0.00 | 0.00 | 99 | 1007.0 |
| 20260507011423 | -17 | 51 | 0.0 | 0.0 | 0.00 | 0.00 | 0.00 | 99 | 1007.0 |
| 20260507010923 | -17 | 80 | 0.0 | 0.0 | 0.00 | 0.00 | 0.00 | 99 | 1007.0 |
| 20260507010423 | -17 | 75 | 0.0 | 0.0 | 0.00 | 0.00 | 0.00 | 99 | 1007.0 |
| 20260507005923 | 9 | 72 | 0.0 | 0.0 | 0.00 | 0.00 | 0.00 | 99 | 1006.1 |
| 20260507005423 | 10 | 77 | 0.0 | 0.0 | 0.00 | 0.00 | 0.00 | 99 | 1006.1 |
| 20260507004923 | -17 | 62 | 0.0 | 0.0 | 0.00 | 0.00 | 0.00 | 99 | 1006.0 |
| 20260507004423 | 10 | 75 | 0.0 | 0.0 | 0.00 | 0.00 | 0.00 | 99 | 1006.0 |
| 20260507003923 | 10 | 79 | 0.0 | 0.0 | 0.00 | 0.00 | 0.00 | 99 | 1006.0 |
| 20260507003423 | 10 | 77 | 0.0 | 1.6 | 0.00 | 0.00 | 0.00 | 99 | 1006.0 |
| 20260507002923 | 10 | 80 | 0.0 | 1.6 | 0.00 | 0.00 | 0.00 | 99 | 1006.0 |
| 20260507002423 | 10 | 43 | 0.0 | 1.6 | 0.00 | 0.00 | 0.00 | 99 | 1006.0 |
| 20260507001923 | 9 | 73 | 0.0 | 16.1 | 0.00 | 0.00 | 0.00 | 99 | 1006.0 |
| 20260507001423 | 9 | 67 | 3.2 | 16.1 | 0.00 | 0.00 | 0.00 | 99 | 1006.0 |
| 20260507000923 | 9 | 48 | 1.6 | 12.9 | 0.00 | 0.00 | 0.00 | 99 | 1006.0 |
| 20260507000423 | 9 | 71 | 0.0 | 6.4 | 0.00 | 0.00 | 0.00 | 99 | 1006.0 |
| 20260506235923 | 9 | 81 | 0.0 | 0.0 | 0.00 | 0.00 | 0.00 | 99 | 1006.0 |
| 20260506235423 | 9 | 43 | 0.0 | 0.0 | 0.00 | 0.00 | 0.00 | 99 | 1006.0 |
| 20260506234923 | 9 | 89 | 0.0 | 4.8 | 0.00 | 0.00 | 0.00 | 99 | 1005.2 |
| 20260506234423 | 9 | 83 | 0.0 | 4.8 | 0.00 | 0.00 | 0.00 | 99 | 1006.0 |
| 20260506233923 | 9 | 48 | 0.0 | 4.8 | 0.00 | 0.00 | 0.00 | 99 | 1005.2 |
| 20260506233423 | 10 | 54 | 0.0 | 4.8 | 0.00 | 0.00 | 0.00 | 99 | 1005.2 |
| 20260506232423 | 10 | 51 | 0.0 | 8.0 | 0.00 | 0.00 | 0.00 | 99 | 1005.0 |
| 20260506231923 | 10 | 78 | 0.0 | 4.8 | 0.00 | 0.00 | 0.00 | 99 | 1005.0 |
| 20260506231423 | 10 | 53 | 0.0 | 4.8 | 0.00 | 0.00 | 0.00 | 99 | 1005.0 |
| 20260506230423 | -17 | 66 | 0.0 | 4.8 | 0.00 | 0.00 | 0.00 | 99 | 1005.0 |
| 20260506225923 | -17 | 75 | 0.0 | 6.4 | 0.00 | 0.00 | 0.00 | 99 | 1005.0 |
| 20260506225423 | -17 | 45 | 1.6 | 8.0 | 0.00 | 0.00 | 0.00 | 99 | 1005.0 |
| 20260506224923 | -17 | 63 | 3.2 | 8.0 | 0.00 | 0.00 | 0.00 | 99 | 1005.0 |
| 20260506224423 | -17 | 53 | 1.6 | 8.0 | 0.00 | 0.00 | 0.00 | 99 | 1005.0 |
| 20260506223923 | -17 | 48 | 0.0 | 8.0 | 0.00 | 0.00 | 0.00 | 99 | 1005.0 |
| 20260506223423 | -17 | 76 | 0.0 | 6.4 | 0.00 | 0.00 | 0.00 | 99 | 1005.0 |
| 20260506222923 | -17 | 44 | 0.0 | 4.8 | 0.00 | 0.00 | 0.00 | 99 | 1005.0 |
| 20260506222423 | -17 | 51 | 1.6 | 4.8 | 0.00 | 0.00 | 0.00 | 99 | 1005.0 |
| 20260506221923 | -17 | 46 | 0.0 | 8.0 | 0.00 | 0.00 | 0.00 | 99 | 1004.2 |
| 20260506221423 | -17 | 87 | 0.0 | 8.0 | 0.00 | 0.00 | 0.00 | 99 | 1004.1 |
| 20260506220923 | -17 | 37 | 1.6 | 6.4 | 0.00 | 0.00 | 0.00 | 99 | 1004.1 |
| 20260506220423 | 16 | 85 | 1.6 | 8.0 | 0.00 | 0.00 | 0.00 | 99 | 1004.0 |
| 20260506215923 | -17 | 128 | 3.2 | 8.0 | 0.00 | 0.00 | 0.00 | 99 | 1004.0 |
| 20260506215423 | -17 | 102 | 0.0 | 3.2 | 0.00 | 0.00 | 0.00 | 99 | 1004.0 |
| 20260506214923 | -17 | 210 | 0.0 | 0.0 | 0.00 | 0.00 | 0.00 | 99 | 1004.0 |
| 20260506214423 | -17 | 223 | 0.0 | 3.2 | 0.00 | 0.00 | 0.00 | 99 | 1003.2 |
| 20260506213923 | -17 | 223 | 0.0 | 3.2 | 0.00 | 0.00 | 0.00 | 99 | 1004.0 |
| 20260506213423 | 17 | 227 | 0.0 | 1.6 | 0.00 | 0.00 | 0.00 | 99 | 1003.2 |
| 20260506212923 | -17 | 190 | 0.0 | 0.0 | 0.00 | 0.00 | 0.00 | 99 | 1003.2 |
| 20260506212423 | 17 | 207 | 0.0 | 0.0 | 0.00 | 0.00 | 0.00 | 99 | 1003.2 |
| 20260506211923 | 17 | 218 | 0.0 | 3.2 | 0.00 | 0.00 | 0.00 | 99 | 1004.0 |
| 20260506211423 | 17 | 235 | 0.0 | 3.2 | 0.00 | 0.00 | 0.00 | 99 | 1004.0 |
| 20260506210923 | 17 | 213 | 0.0 | 3.2 | 0.00 | 0.00 | 0.00 | 99 | 1003.2 |
| 20260506210423 | 17 | 225 | 0.0 | 0.0 | 0.00 | 0.00 | 0.00 | 99 | 1003.2 |
| 20260506205923 | 17 | 227 | 0.0 | 0.0 | 0.00 | 0.00 | 0.00 | 99 | 1003.1 |
| 20260506205423 | 17 | 231 | 0.0 | 0.0 | 0.00 | 0.00 | 0.00 | 99 | 1003.0 |
| 20260506204923 | 17 | 231 | 0.0 | 1.6 | 0.00 | 0.00 | 0.00 | 99 | 1003.0 |
| 20260506204423 | 17 | 235 | 0.0 | 4.8 | 0.00 | 0.00 | 0.00 | 99 | 1003.0 |
| 20260506203423 | 17 | 228 | 1.6 | 8.0 | 0.00 | 0.00 | 0.00 | 99 | 1003.1 |
| 20260506202923 | 17 | 235 | 1.6 | 8.0 | 0.00 | 0.00 | 0.00 | 99 | 1003.2 |
| 20260506202423 | 17 | 240 | 0.0 | 4.8 | 0.00 | 0.00 | 0.00 | 99 | 1003.2 |
| 20260506201923 | 17 | 183 | 0.0 | 4.8 | 0.00 | 0.00 | 0.00 | 99 | 1003.0 |
| 20260506201423 | 17 | 222 | 0.0 | 0.0 | 0.00 | 0.00 | 0.00 | 99 | 1003.1 |
| 20260506200923 | 17 | 210 | 0.0 | 0.0 | 0.00 | 0.00 | 0.00 | 99 | 1003.1 |
| 20260506200423 | 17 | 213 | 0.0 | 0.0 | 0.00 | 0.00 | 0.00 | 99 | 1003.2 |
| 20260506195923 | 17 | 215 | 0.0 | 0.0 | 0.00 | 0.00 | 0.00 | 99 | 1003.2 |
| 20260506195423 | 17 | 185 | 0.0 | 0.0 | 0.00 | 0.00 | 0.00 | 99 | 1003.2 |
| 20260506194923 | 17 | 235 | 0.0 | 1.6 | 0.00 | 0.00 | 0.00 | 99 | 1004.0 |
| 20260506194423 | 17 | 231 | 0.0 | 4.8 | 0.00 | 0.00 | 0.00 | 99 | 1004.0 |
| 20260506193923 | 17 | 230 | 1.6 | 4.8 | 0.00 | 0.00 | 0.00 | 99 | 1004.0 |
| 20260506193423 | 17 | 230 | 1.6 | 4.8 | 0.00 | 0.00 | 0.00 | 99 | 1003.2 |
| 20260506192923 | 17 | 237 | 1.6 | 3.2 | 0.00 | 0.00 | 0.00 | 99 | 1003.2 |
| 20260506192423 | 17 | 205 | 1.6 | 3.2 | 0.00 | 0.00 | 0.00 | 99 | 1004.0 |
| 20260506191923 | 17 | 233 | 1.6 | 3.2 | 0.00 | 0.00 | 0.00 | 99 | 1003.2 |
| 20260506191423 | 17 | 236 | 0.0 | 3.2 | 0.00 | 0.00 | 0.00 | 99 | 1004.0 |
| 20260506190923 | 17 | 222 | 0.0 | 3.2 | 0.00 | 0.00 | 0.00 | 99 | 1004.0 |
| 20260506190423 | 17 | 226 | 0.0 | 9.7 | 0.00 | 0.00 | 0.00 | 99 | 1004.0 |
| 20260506185923 | 17 | 183 | 3.2 | 9.7 | 0.00 | 0.00 | 0.00 | 99 | 1003.2 |
| 20260506185423 | -17 | 181 | 1.6 | 4.8 | 0.00 | 0.00 | 0.00 | 99 | 1004.0 |
| 20260506184923 | -17 | 225 | 1.6 | 4.8 | 0.00 | 0.00 | 0.00 | 99 | 1004.0 |
| 20260506184423 | -17 | 211 | 0.0 | 4.8 | 0.00 | 0.00 | 0.00 | 99 | 1004.0 |
| 20260506183923 | -17 | 230 | 1.6 | 4.8 | 0.00 | 0.00 | 0.00 | 99 | 1004.0 |